[[{"header":{"parameterUnit":"m.s-1","parameterCategory":1,"la1":30.2991,"la2":30.254,"lo1":-89.0895,"lo2":-89.0444,"dy":0.0017,"dx":0.0017,"nx":28,"ny":28,"refTime":"2023-08-27T21:00:00:Z","depth":0,"parameterNumber":2,"parameterNumberName":"U-component_of_WINDS"},"data":[0,0,0,0,0,0,0,0,0,0,0,0,0,0,0,0,0,0,0,0,0,0,0,0,0,0,0,0,0,0,0,0,0,0,0,0,0,0,0,0,0,0,0,0,0,0,0,0,0,0,0,0,0,0,0,0,0,0,0.1497,0.1495,0,0.1332,0.133,0.1328,0.1287,0.1288,0.1289,0.129,0.1124,0.1118,0.1113,0,0,0,0,0,0,0,0,0,0,0,0,0,0.1779,0.1774,0.1497,0.1495,0.1493,0.1332,0.133,0.1328,0.1287,0.1288,0.1289,0.1291,0.1125,0.1119,0.1113,0,0,0,0,0,0,0,0,0,0,0,0,0,0.164,0.1772,0.1497,0.1453,0.1447,0.1333,0.133,0.1327,0.1286,0.1288,0.129,0.1291,0.1127,0.112,0.1112,0.103,0,0,0.1087,0.1083,0,0,0,0,0,0,0,0,0.1647,0.1629,0.1461,0.1456,0.1449,0.1332,0.1368,0.1228,0.1286,0.1348,0.129,0.1292,0.1192,0.1178,0.1144,0.1022,0.1015,0.1086,0.1081,0.1078,0.1075,0,0,0,0,0,0,0,0.1657,0.1636,0.1432,0.1459,0.1451,0.1442,0.1424,0.1342,0.1263,0.1342,0.1339,0.132,0.1189,0.1152,0.114,0.1013,0.1086,0.1079,0.1074,0.1071,0.0817,0.0816,0,0,0,0,0,0,0.1674,0.1644,0.1437,0.1427,0.1554,0.1436,0.1416,0.1368,0.1264,0.1249,0.1319,0.1319,0.1165,0.1149,0.1134,0.1032,0.1078,0.107,0.1066,0.0819,0.0817,0.0815,0,0,0,0,0,0,0.168,0.1656,0.1443,0.1534,0.1507,0.1429,0.1376,0.1364,0.1327,0.1246,0.1232,0.1295,0.1166,0.1145,0.1056,0.1026,0.1067,0.1059,0.0822,0.0819,0.0816,0.0828,0,0,0,0,0,0,0.1689,0.1658,0.1626,0.1534,0.1502,0.1368,0.1374,0.1359,0.1313,0.1311,0.122,0.1207,0.1165,0.1069,0.1048,0.1015,0.1053,0.0824,0.082,0.0817,0.083,0.0826,0.0822,0,0,0,0,0,0.1699,0.1636,0.1624,0.16,0.1459,0.1366,0.1348,0.1301,0.131,0.1278,0.1226,0.121,0.1033,0.106,0.1037,0.1001,0.0826,0.0821,0.0817,0.0831,0.0827,0.0822,0,0,0,0,0,0,0.1727,0.1623,0.1609,0.1514,0.1449,0.1359,0.1316,0.1297,0.1228,0.1229,0.1175,0.1155,0.107,0.1026,0.1059,0.0917,0.0929,0.092,0.0948,0.0943,0.0939,0.0951,0.1046,0,0,0,0,0,0.1722,0.1653,0.1567,0.1492,0.146,0.1394,0.1351,0.1321,0.1252,0.1224,0.1165,0.1099,0.1029,0.0984,0.0914,0.0824,0.0804,0.0788,0.0784,0.0782,0.0774,0.0724,0.0716,0.0801,0.0801,0.0801,0,0,0.1711,0.1646,0.1606,0.1496,0.1442,0.1374,0.1371,0.1298,0.1247,0.1213,0.1125,0.1081,0.1003,0.0914,0.0871,0.0875,0.0747,0.0776,0.0775,0.0768,0.0719,0.0711,0.0704,0.0798,0.0799,0.0799,0,0,0.1656,0.16,0.1531,0.1477,0.1395,0.1352,0.1336,0.1249,0.1217,0.1128,0.1101,0.1041,0.092,0.0867,0.0824,0.0751,0.0734,0.073,0.071,0.0662,0.0655,0.0649,0.0623,0.0614,0.0723,0.0723,0.0723,0,0.1653,0.1548,0.1499,0.1427,0.138,0.1346,0.1277,0.1227,0.1127,0.1096,0.1102,0.0951,0.0896,0.0794,0.0776,0.0742,0.0723,0.0739,0.066,0.0653,0.0647,0.0621,0.0612,0.0723,0.0723,0.0723,0.0723,0,0.1548,0.1476,0.1431,0.1334,0.1282,0.1213,0.1154,0.1108,0.1083,0.1039,0.095,0.0884,0.0801,0.0775,0.0749,0.0669,0.0674,0.067,0.0681,0.0639,0.0615,0.0605,0.0723,0.0723,0.0723,0.0723,0,0,0.1505,0.1383,0.1367,0.1324,0.1232,0.1175,0.1105,0.1023,0.0985,0.0918,0.0858,0.0758,0.0754,0.0705,0.0674,0.0632,0.0579,0.0634,0.0631,0.0626,0.0487,0.049,0.048,0.0568,0.0566,0.0564,0.0494,0,0.1438,0.131,0.1265,0.1159,0.1093,0.106,0.0999,0.0937,0.0895,0.0833,0.0787,0.0717,0.0717,0.0688,0.0645,0.0595,0.055,0.0599,0.0512,0.051,0.0532,0.0467,0.0469,0.0406,0.0484,0.0482,0.0481,0,0.1343,0.1274,0.1162,0.1079,0.105,0.0995,0.0918,0.0859,0.0788,0.0761,0.0707,0.0679,0.0605,0.0622,0.052,0.0555,0.0517,0.0487,0.0483,0.0473,0.0492,0.0455,0.0385,0.0375,0.0465,0.0467,0.0468,0,0.1323,0.1203,0.112,0.1084,0.0985,0.0948,0.0905,0.0836,0.079,0.0723,0.0693,0.0618,0.0577,0.0521,0.0474,0.049,0.0377,0.0389,0.0353,0.0354,0.033,0.0332,0.0252,0.0306,0.0306,0.0306,0.0307,0,0.1253,0.1186,0.1109,0.1059,0.0983,0.0932,0.0859,0.0815,0.0754,0.0695,0.0663,0.0608,0.055,0.0488,0.0451,0.0373,0.0355,0.0332,0.0323,0.0334,0.0337,0.0308,0.0311,0.0304,0.0304,0.0305,0.0305,0,0.1217,0.1163,0.1071,0.0985,0.0963,0.0911,0.0838,0.0788,0.0745,0.0671,0.0651,0.0584,0.051,0.0458,0.0363,0.0338,0.0254,0.0246,0.0278,0.0273,0.024,0.0244,0.0139,0.0123,0.0188,0.0187,0.0187,0,0.1176,0.1124,0.1032,0.099,0.0947,0.088,0.0833,0.0782,0.0735,0.0651,0.0612,0.0536,0.0472,0.0355,0.0299,0.0226,0.0216,0.0184,0.0205,0.0218,0.0215,0.0219,0.0214,0.0181,0.018,0.018,0.018,0,0.1109,0.1085,0.1018,0.0942,0.0887,0.0825,0.0763,0.0731,0.0669,0.0618,0.0541,0.0492,0.0395,0.032,0.0242,0.02,0.018,0.0174,0.0162,0.0173,0.0193,0.0182,0.0269,0.0176,0.0177,0.0177,0.0177,0.0177,0.1069,0.1021,0.0949,0.0876,0.0824,0.0767,0.0716,0.0667,0.0602,0.0519,0.0493,0.0414,0.0347,0.024,0.0197,0.0135,0.0137,0.0119,0.0115,0.0111,0.0111,0.0204,0.0121,0.0121,0.0121,0.0121,0.0121,0,0.1,0.0953,0.0886,0.08,0.0743,0.0729,0.0659,0.0613,0.0543,0.0482,0.042,0.0333,0.026,0.0199,0.0124,0.0087,0.0076,0.0069,0.0071,0.0061,0.0114,0.0132,0.0079,0.0079,0.0079,0.0079,0.0079,0.0079,0.0957,0.0876,0.0844,0.0736,0.069,0.0611,0.0573,0.0521,0.0471,0.0375,0.0314,0.0275,0.0213,0.0134,0.0068,0.0052,0.0026,0.0021,0.0003,0.0053,0.0058,0.0062,0.0079,0.0016,0.0016,-0.0045,-0.0045,-0.0046]},{"header":{"parameterUnit":"m.s-1","parameterCategory":1,"la1":30.2991,"la2":30.254,"lo1":-89.0895,"lo2":-89.0444,"dy":0.0017,"dx":0.0017,"nx":28,"ny":28,"refTime":"2023-08-27T21:00:00:Z","depth":0,"parameterNumber":3,"parameterNumberName":"V-component_of_WINDS"},"data":[0,0,0,0,0,0,0,0,0,0,0,0,0,0,0,0,0,0,0,0,0,0,0,0,0,0,0,0,0,0,0,0,0,0,0,0,0,0,0,0,0,0,0,0,0,0,0,0,0,0,0,0,0,0,0,0,0,0,0.2736,0.2736,0,0.2756,0.2757,0.2757,0.2717,0.2716,0.2715,0.2714,0.2733,0.2734,0.2736,0,0,0,0,0,0,0,0,0,0,0,0,0,0.2661,0.2663,0.2736,0.2736,0.2736,0.2756,0.2757,0.2757,0.2718,0.2716,0.2715,0.2713,0.2732,0.2734,0.2736,0,0,0,0,0,0,0,0,0,0,0,0,0,0.2689,0.2664,0.2736,0.2719,0.2718,0.2756,0.2757,0.2757,0.2718,0.2716,0.2714,0.2712,0.2731,0.2734,0.2736,0.2791,0,0,0.2744,0.2745,0,0,0,0,0,0,0,0,0.2687,0.2692,0.2722,0.2721,0.2719,0.2732,0.2737,0.2768,0.2719,0.2718,0.2714,0.2711,0.2734,0.2736,0.2744,0.2792,0.2793,0.2745,0.2746,0.2747,0.2748,0,0,0,0,0,0,0,0.2686,0.2691,0.2744,0.2722,0.2721,0.271,0.2712,0.2743,0.2737,0.2718,0.2715,0.2718,0.2733,0.2742,0.2744,0.2793,0.2745,0.2747,0.2748,0.2749,0.2889,0.2891,0,0,0,0,0,0,0.2686,0.2689,0.2743,0.2745,0.2698,0.2713,0.2715,0.273,0.2736,0.2735,0.272,0.2716,0.2739,0.2742,0.2745,0.2811,0.2747,0.275,0.2751,0.2886,0.2889,0.2891,0,0,0,0,0,0,0.2685,0.2691,0.2742,0.2716,0.2722,0.2717,0.2734,0.2732,0.274,0.2738,0.2736,0.273,0.2737,0.2741,0.2781,0.2811,0.2751,0.2753,0.2884,0.2887,0.289,0.2942,0,0,0,0,0,0,0.2683,0.2691,0.2712,0.2717,0.2724,0.2778,0.2735,0.2733,0.2745,0.2741,0.2747,0.2746,0.2736,0.2777,0.2783,0.2813,0.2755,0.2881,0.2885,0.2889,0.2938,0.2947,0.2955,0,0,0,0,0,0.268,0.2725,0.2713,0.272,0.275,0.278,0.2784,0.2771,0.2748,0.2769,0.2767,0.2746,0.2806,0.2781,0.2788,0.2819,0.2879,0.2884,0.2889,0.2934,0.2945,0.2954,0,0,0,0,0,0,0.2722,0.2725,0.2712,0.276,0.277,0.2773,0.2799,0.2783,0.28,0.2795,0.2778,0.278,0.2823,0.2825,0.2797,0.2873,0.2839,0.2845,0.2871,0.2881,0.289,0.2889,0.2757,0,0,0,0,0,0.2737,0.2762,0.2763,0.2805,0.2811,0.2805,0.2817,0.2807,0.2817,0.282,0.2822,0.2831,0.2852,0.2867,0.2886,0.2938,0.2939,0.2963,0.2971,0.2978,0.2984,0.3013,0.3024,0.2907,0.2907,0.2907,0,0,0.2768,0.2773,0.2789,0.2814,0.2821,0.2847,0.2808,0.2837,0.2856,0.2824,0.2862,0.2864,0.2873,0.2919,0.294,0.2922,0.3016,0.2984,0.299,0.2992,0.3019,0.303,0.304,0.2911,0.291,0.291,0,0,0.2838,0.2844,0.2881,0.2889,0.29,0.2895,0.2904,0.291,0.291,0.2948,0.2925,0.2947,0.2984,0.2992,0.3001,0.3076,0.3058,0.3083,0.3127,0.3156,0.3165,0.3173,0.3201,0.3211,0.3089,0.3089,0.3089,0,0.2875,0.2914,0.2901,0.2932,0.2944,0.2918,0.2955,0.2963,0.2979,0.2988,0.2968,0.3015,0.3019,0.3068,0.3087,0.3094,0.3104,0.3082,0.3165,0.3172,0.318,0.3206,0.3217,0.3092,0.3092,0.3091,0.3091,0,0.296,0.2987,0.3015,0.3034,0.3048,0.3082,0.3074,0.3091,0.308,0.3077,0.3117,0.3121,0.3142,0.3152,0.3141,0.32,0.3189,0.3167,0.3132,0.3194,0.3219,0.3229,0.3096,0.3095,0.3094,0.3093,0,0,0.3056,0.3068,0.3079,0.3088,0.3099,0.3119,0.3152,0.3173,0.3188,0.3201,0.3228,0.3261,0.3241,0.3252,0.3241,0.3266,0.3327,0.3241,0.3241,0.3258,0.3394,0.3411,0.3423,0.3315,0.3317,0.3318,0.3394,0,0.3127,0.3185,0.3175,0.3231,0.3257,0.3233,0.3261,0.3271,0.327,0.3292,0.329,0.3314,0.3286,0.3292,0.3315,0.3315,0.3354,0.3309,0.3341,0.3342,0.3341,0.3436,0.3454,0.3525,0.3403,0.3405,0.3406,0,0.3217,0.3235,0.3294,0.3303,0.3313,0.3339,0.3359,0.3379,0.339,0.3388,0.34,0.3386,0.3419,0.3383,0.3429,0.3398,0.3411,0.3412,0.3415,0.3418,0.3378,0.3443,0.3547,0.3558,0.3421,0.3419,0.3418,0,0.3283,0.3321,0.3362,0.337,0.3381,0.34,0.3405,0.3414,0.3428,0.3445,0.3454,0.3474,0.3485,0.3501,0.3493,0.3467,0.3541,0.3504,0.354,0.354,0.3557,0.3556,0.3666,0.3563,0.3563,0.3563,0.3563,0,0.3364,0.3401,0.3393,0.3418,0.3459,0.3447,0.3489,0.3491,0.35,0.3525,0.3504,0.3529,0.3515,0.3538,0.3532,0.3571,0.3576,0.3575,0.3574,0.3578,0.3578,0.3587,0.3582,0.3566,0.3565,0.3565,0.3564,0,0.3445,0.344,0.3484,0.3491,0.3494,0.3524,0.353,0.3554,0.3552,0.3584,0.3591,0.3588,0.3614,0.3607,0.3635,0.363,0.3681,0.3672,0.3678,0.3676,0.3714,0.3711,0.3833,0.3849,0.3735,0.3736,0.3737,0,0.3497,0.3525,0.3537,0.3553,0.356,0.3586,0.36,0.359,0.3606,0.3622,0.3644,0.3668,0.3688,0.3731,0.3731,0.3753,0.3745,0.3786,0.3748,0.3752,0.3747,0.3746,0.375,0.3794,0.3796,0.3797,0.3797,0,0.359,0.3587,0.361,0.3632,0.3651,0.3667,0.3682,0.3696,0.3687,0.3706,0.3733,0.3749,0.3778,0.3804,0.3824,0.3829,0.3812,0.381,0.3819,0.3825,0.3828,0.3828,0.37,0.3807,0.3806,0.3805,0.3805,0.3804,0.3659,0.3684,0.3697,0.3723,0.3733,0.3748,0.3771,0.3773,0.3796,0.382,0.3812,0.3844,0.3855,0.3881,0.3889,0.3913,0.3898,0.3912,0.3915,0.3919,0.3925,0.3823,0.3917,0.3917,0.3916,0.3916,0.3916,0,0.3753,0.376,0.3784,0.3807,0.3828,0.3811,0.3826,0.3845,0.3874,0.3886,0.3906,0.3938,0.3963,0.3966,0.3989,0.4008,0.4002,0.4015,0.4014,0.4016,0.3937,0.3926,0.4021,0.4021,0.4021,0.402,0.402,0.402,0.3804,0.3846,0.3845,0.3892,0.3899,0.3931,0.3942,0.3955,0.3965,0.4003,0.4024,0.4026,0.4034,0.4059,0.4081,0.4081,0.4091,0.4108,0.4105,0.4032,0.4021,0.4011,0.4002,0.411,0.411,0.4183,0.4183,0.4184]}]]